Weather History for EBLG - October, 2011

Change the Weather History Date:

Sunday, October 2, 2011

  Actual Average Record
Temperature  
Mean Temperature 65 °F -  
Max Temperature 75 °F 55 °F 75 °F (2011)
Min Temperature 55 °F 44 °F 39 °F (1998)
Growing Degree Days 15 (Base 50)    
Moisture  
Dew Point 55 °F    
Average Humidity 71    
Maximum Humidity 94    
Minimum Humidity 42    
Precipitation  
Precipitation 0.00 in - - ()
Sea Level Pressure  
Sea Level Pressure 30.28 in    
Wind  
Wind Speed 3 mph ()    
Max Wind Speed 7 mph    
Max Gust Speed 15 mph    
Visibility 4.1 miles    
Events      
Averages and records for this station are not official NWS values.
T = Trace of Precipitation, MM = Missing Value Source: Averaged Metar Reports

Daily Weather History Graph

Daily Weather History Graph

Search for Another Location

Airport or City:

Trip Planner

Search our weather history database for the weather conditions in past years. The results will help you decide how hot, cold, wet, or windy it might be!

Date:

Astronomy

Oct. 02, 2011 Rise Set
Actual Time 7:39 AM CEST 7:15 PM CEST
Civil Twilight 7:06 AM CEST 7:47 PM CEST
Nautical Twilight 6:28 AM CEST 8:25 PM CEST
Astronomical Twilight 5:49 AM CEST 9:04 PM CEST
Moon 2:09 PM CEST (10/2) 10:19 PM CEST (10/2)
Length of Visible Light 12h 41m
Length of Day
11h 35m
Waxing Crescent, 32% of the Moon is Illuminated
Oct 2
Waxing Crescent
Oct 4
First Quarter
Oct 12
Full
Oct 20
Last Quarter
Oct 26
New

Hourly Weather History & Observations

Time (CEST) Temp. Dew Point Humidity Pressure Visibility Wind Dir Wind Speed Gust Speed Precip Events Conditions
12:20 AM 62.6 °F 55.4 °F 77% 30.33 in - SE 4.6 mph - N/A   Clear
12:50 AM 62.6 °F 55.4 °F 77% 30.30 in - SE 4.6 mph - N/A   Clear
1:20 AM 62.6 °F 57.2 °F 82% 30.30 in 5.0 mi Variable 1.2 mph - N/A   Unknown
1:50 AM 60.8 °F 57.2 °F 88% 30.30 in 5.0 mi Variable 2.3 mph - N/A   Unknown
2:00 AM 61 °F 57 °F 81% 30.32 in 5 mi South 2.2 mph - -  
2:20 AM 59.0 °F 55.4 °F 88% 30.30 in 3.7 mi Variable 3.5 mph 15.0 mph N/A   Unknown
2:50 AM 60.8 °F 57.2 °F 88% 30.30 in 3.7 mi SSW 2.3 mph - N/A   Unknown
3:20 AM 60.8 °F 55.4 °F 82% 30.30 in 3.7 mi SSW 2.3 mph - N/A   Unknown
3:50 AM 60.8 °F 55.4 °F 82% 30.30 in 3.7 mi South 3.5 mph - N/A   Unknown
4:20 AM 59.0 °F 55.4 °F 88% 30.30 in - South 3.5 mph - N/A   Mist
4:50 AM 59.0 °F 55.4 °F 88% 30.30 in - SSE 3.5 mph - N/A   Mist
5:00 AM 58 °F 55 °F 88% 30.31 in 2 mi SSE 2.2 mph - -   Mist
5:20 AM 57.2 °F 55.4 °F 94% 30.30 in 1.9 mi SSE 5.8 mph - N/A   Mist
5:50 AM 57.2 °F 53.6 °F 88% 30.30 in 1.9 mi SSE 4.6 mph - N/A   Mist
6:20 AM 55.4 °F 53.6 °F 94% 30.30 in 1.7 mi SSE 5.8 mph - N/A   Mist
6:50 AM 55.4 °F 53.6 °F 94% 30.30 in 1.6 mi SSE 6.9 mph - N/A   Mist
7:20 AM 55.4 °F 53.6 °F 94% 30.30 in 1.6 mi SSE 4.6 mph - N/A   Mist
7:50 AM 55.4 °F 53.6 °F 94% 30.30 in 1.6 mi SSE 4.6 mph - N/A   Mist
8:00 AM 56 °F 54 °F 89% 30.32 in 2 mi SSE 4.5 mph - -   Mist
8:20 AM 55.4 °F 53.6 °F 94% 30.30 in 1.9 mi South 3.5 mph - N/A   Mist
8:50 AM 57.2 °F 53.6 °F 88% 30.30 in 2.5 mi South 4.6 mph - N/A   Mist
9:20 AM 59.0 °F 53.6 °F 82% 30.33 in 3.1 mi South 3.5 mph - N/A   Mist
9:50 AM 60.8 °F 55.4 °F 82% 30.33 in 4.3 mi South 3.5 mph - N/A   Unknown
10:20 AM 62.6 °F 57.2 °F 82% 30.33 in 5.0 mi South 2.3 mph - N/A   Unknown
10:50 AM 64.4 °F 57.2 °F 77% 30.33 in 5.0 mi SSE 3.5 mph - N/A   Unknown
11:00 AM 65 °F 57 °F 69% 30.32 in 5 mi SSE 2.2 mph - -  
11:20 AM 68.0 °F 57.2 °F 68% 30.30 in 5.0 mi SSE 3.5 mph - N/A   Unknown
11:50 AM 69.8 °F 57.2 °F 64% 30.30 in 5.0 mi Variable 2.3 mph - N/A   Unknown
12:20 PM 71.6 °F 57.2 °F 60% 30.30 in 5.0 mi Variable 2.3 mph - N/A   Unknown
12:50 PM 73.4 °F 57.2 °F 57% 30.30 in 5.0 mi Variable 2.3 mph - N/A   Unknown
1:20 PM 73.4 °F 55.4 °F 53% 30.30 in 5.0 mi Variable 2.3 mph - N/A   Unknown
1:50 PM 75.2 °F 55.4 °F 50% 30.27 in 5.0 mi Variable 2.3 mph - N/A   Unknown
2:00 PM 74 °F 55 °F 42% 30.27 in 5 mi 2.2 mph - -  
2:20 PM 75.2 °F 55.4 °F 50% 30.27 in 5.0 mi NNW 4.6 mph - N/A   Unknown
2:50 PM 75.2 °F 55.4 °F 50% 30.27 in - WNW 3.5 mph - N/A   Clear
3:20 PM 75.2 °F 55.4 °F 50% 30.27 in - NW 5.8 mph - N/A   Clear
3:50 PM 75.2 °F 57.2 °F 53% 30.27 in - NNW 5.8 mph - N/A   Clear
4:20 PM 75.2 °F 57.2 °F 53% 30.27 in - NNW 4.6 mph - N/A   Clear
4:50 PM 73.4 °F 57.2 °F 57% 30.24 in 5.6 mi North 5.8 mph - N/A   Unknown
5:00 PM 74 °F 57 °F 44% 30.24 in 6 mi North 6.7 mph - -  
5:20 PM 73.4 °F 57.2 °F 57% 30.24 in 5.6 mi WNW 4.6 mph - N/A   Unknown
5:50 PM 73.4 °F 55.4 °F 53% 30.24 in - NW 4.6 mph - N/A   Clear
6:20 PM 71.6 °F 53.6 °F 53% 30.24 in - NNW 4.6 mph - N/A   Clear
6:50 PM 69.8 °F 51.8 °F 53% 30.24 in - North 3.5 mph - N/A   Clear
7:20 PM 69.8 °F 53.6 °F 56% 30.24 in - North 2.3 mph - N/A   Clear
7:50 PM 68.0 °F 53.6 °F 60% 30.24 in - North 1.2 mph - N/A   Clear
8:00 PM 67 °F 54 °F 52% 30.25 in 10 mi North 2.2 mph - -   Scattered Clouds
8:20 PM 64.4 °F 53.6 °F 68% 30.24 in - North 1.2 mph - N/A   Clear
8:50 PM 64.4 °F 51.8 °F 64% 30.24 in - North 1.2 mph - N/A   Clear
9:20 PM 66.2 °F 51.8 °F 60% 30.24 in - Variable 1.2 mph - N/A   Clear
9:50 PM 62.6 °F 51.8 °F 68% 30.24 in - Calm Calm - N/A   Clear
10:20 PM 64.4 °F 53.6 °F 68% 30.24 in - Variable 2.3 mph - N/A   Clear
10:50 PM 64.4 °F 53.6 °F 68% 30.24 in - SSE 3.5 mph - N/A   Clear
11:00 PM 64 °F 53 °F 60% 30.25 in 6 mi SSE 4.5 mph - -  
11:20 PM 62.6 °F 53.6 °F 72% 30.24 in - SE 3.5 mph - N/A   Clear
11:50 PM 60.8 °F 53.6 °F 77% 30.24 in 5.0 mi Variable 2.3 mph - N/A   Unknown